GW0275 Weather Reports


Display with metric or nautical units.
time (UTC)temp
F
wind
direction
speed
MPH
gust
MPH
rain 1hr
in
rain 24hr
in
rain mn
in
humidity
%
barometer
mb
20260508023036 49 0 0.0 0.0 0.00 0.98 0.98 97 1001.8
20260508021532 49 0 0.0 3.0 0.00 0.98 0.98 96 1001.8
20260508020031 49 234 0.0 4.0 0.00 0.98 0.98 96 1001.8
20260508014538 49 202 0.0 5.0 0.00 0.98 0.98 96 1002.0
20260508013037 50 179 1.0 5.0 0.00 0.98 0.98 96 1001.8
20260508011542 50 203 2.0 6.0 0.00 0.98 0.98 96 1001.6
20260508010035 50 213 3.0 11.0 0.00 0.98 0.98 96 1002.0
20260508004532 50 198 2.0 6.0 0.00 0.98 0.98 96 1002.0
20260508003038 50 209 2.0 5.0 0.00 0.98 0.98 96 1001.9
20260508001536 50 204 2.0 7.0 0.00 0.98 0.98 96 1002.1
20260508000035 51 176 4.0 8.0 0.00 0.98 0.98 96 1002.5
20260507234534 51 213 2.0 5.0 0.00 0.98 0.98 96 1002.3
20260507233037 51 159 4.0 6.0 0.00 0.98 0.98 95 1002.4
20260507231546 51 219 2.0 10.0 0.00 0.98 0.98 95 1002.5
20260507230032 51 190 2.0 7.0 0.00 0.98 0.98 95 1002.5
20260507224537 51 199 3.0 7.0 0.00 0.98 0.98 95 1002.5
20260507223038 51 190 3.0 8.0 0.00 0.98 0.98 95 1002.4
20260507221537 51 216 5.0 15.0 0.00 0.98 0.98 94 1003.0
20260507220034 51 292 4.0 10.0 0.00 0.98 0.98 95 1002.7
20260507214532 50 197 2.0 10.0 0.02 0.98 0.98 94 1002.7
20260507213040 50 209 6.0 18.0 0.06 0.98 0.98 94 1002.7
20260507211534 50 178 7.0 15.0 0.12 0.98 0.98 94 1001.9
20260507210034 51 124 5.0 14.0 0.21 0.98 0.98 94 1002.3
20260507204540 51 140 5.0 11.0 0.29 0.96 0.96 94 1002.9
20260507203041 51 169 4.0 12.0 0.39 0.92 0.92 94 1003.8
20260507201538 52 167 4.0 11.0 0.46 0.85 0.85 94 1003.9
20260507200045 52 175 4.0 12.0 0.45 0.77 0.77 94 1004.5
20260507194537 52 209 1.0 6.0 0.43 0.67 0.67 94 1004.9
20260507193034 52 216 6.0 16.0 0.40 0.52 0.52 94 1004.8
20260507191535 53 166 8.0 16.0 0.29 0.39 0.39 94 1004.6
20260507190033 53 158 12.0 21.0 0.23 0.32 0.32 93 1004.9
20260507184539 53 165 11.0 21.0 0.15 0.24 0.24 93 1004.9
20260507183043 53 186 13.0 26.0 0.04 0.13 0.13 92 1005.3
20260507181538 54 169 14.0 22.0 0.00 0.09 0.09 90 1005.0
20260507180041 54 179 17.0 29.0 0.00 0.09 0.09 89 1004.8
20260507174536 55 182 16.0 28.0 0.00 0.09 0.09 88 1005.1
20260507173041 56 166 13.0 29.0 0.00 0.09 0.09 89 1005.3
20260507171557 56 171 13.0 26.0 0.00 0.09 0.09 88 1005.7
20260507170035 55 163 9.0 21.0 0.00 0.09 0.09 88 1006.0
20260507164550 56 163 12.0 27.0 0.00 0.09 0.09 88 1006.3
20260507163035 56 165 11.0 29.0 0.00 0.09 0.09 88 1006.5
20260507161544 56 194 12.0 26.0 0.00 0.09 0.09 88 1007.2
20260507160040 56 133 15.0 32.0 0.00 0.09 0.09 88 1007.2
20260507154536 57 179 17.0 32.0 0.00 0.09 0.09 88 1007.5
20260507153044 56 194 17.0 32.0 0.00 0.09 0.09 89 1008.0
20260507151541 56 182 17.0 31.0 0.00 0.09 0.09 88 1008.5
20260507150036 56 171 15.0 25.0 0.00 0.09 0.09 88 1008.4
20260507144534 56 206 16.0 29.0 0.00 0.09 0.09 88 1008.9
20260507143032 56 166 14.0 31.0 0.00 0.09 0.09 90 1009.3
20260507141537 56 200 13.0 28.0 0.00 0.09 0.09 89 1009.7
20260507140037 56 188 15.0 27.0 0.00 0.09 0.09 89 1010.0
20260507134545 56 180 8.0 36.0 0.00 0.09 0.09 90 1010.1
20260507133032 55 169 12.0 25.0 0.00 0.09 0.09 90 1010.3
20260507131537 55 173 10.0 22.0 0.00 0.09 0.09 90 1010.4
20260507130042 56 115 12.0 23.0 0.01 0.09 0.09 89 1010.1
20260507124534 55 182 7.0 22.0 0.01 0.09 0.09 91 1009.9
20260507123037 54 166 14.0 29.0 0.01 0.09 0.09 92 1010.3
20260507121535 55 171 14.0 28.0 0.01 0.09 0.09 92 1011.0
20260507120040 55 141 13.0 23.0 0.00 0.08 0.08 92 1011.5
20260507114537 54 197 10.0 22.0 0.00 0.08 0.08 92 1012.1
20260507113038 54 157 8.0 17.0 0.00 0.08 0.08 93 1012.1
20260507111534 53 194 10.0 17.0 0.00 0.08 0.08 93 1012.3
20260507110047 53 158 9.0 20.0 0.00 0.08 0.08 93 1012.0
20260507104535 53 162 12.0 18.0 0.00 0.08 0.08 93 1012.3
20260507103041 53 179 9.0 14.0 0.00 0.08 0.08 93 1012.8
20260507101543 53 203 10.0 16.0 0.00 0.08 0.08 92 1012.8
20260507100038 54 149 9.0 19.0 0.00 0.08 0.08 92 1012.4
20260507094537 54 193 8.0 18.0 0.01 0.08 0.08 93 1012.6
20260507093035 54 204 6.0 18.0 0.03 0.08 0.08 93 1013.1
20260507091539 54 209 12.0 22.0 0.04 0.08 0.08 94 1012.8
20260507090038 54 171 6.0 24.0 0.05 0.08 0.08 95 1012.9
20260507084539 53 194 6.0 14.0 0.06 0.07 0.07 95 1013.0
20260507083039 52 173 8.0 12.0 0.05 0.05 0.05 95 1013.1
20260507081536 52 203 4.0 10.0 0.04 0.04 0.04 95 1013.2
20260507080041 52 178 5.0 11.0 0.03 0.03 0.03 94 1013.2
20260507074542 53 190 5.0 19.0 0.01 0.01 0.01 94 1013.7
20260507073036 53 177 7.0 14.0 0.00 0.00 0.00 94 1013.9
20260507071537 53 213 4.0 10.0 0.00 0.00 0.00 94 1014.1
20260507070044 53 140 2.0 8.0 0.00 0.00 0.00 94 1014.1
20260507064537 53 196 3.0 10.0 0.00 0.00 0.00 94 1014.3
20260507063038 53 188 4.0 10.0 0.00 0.00 0.00 94 1014.4
20260507061532 53 170 4.0 12.0 0.00 0.00 0.00 94 1014.6
20260507060041 53 213 3.0 8.0 0.00 0.00 0.00 94 1015.0
20260507054535 53 177 4.0 12.0 0.00 0.00 0.00 94 1015.0
20260507053034 53 181 3.0 9.0 0.00 0.00 0.00 94 1015.3
20260507051540 53 238 4.0 11.0 0.00 0.00 0.00 94 1015.5
20260507050042 53 185 4.0 9.0 0.00 0.00 0.00 94 1016.1
20260507044537 53 223 4.0 9.0 0.00 0.00 0.00 94 1016.2
20260507043033 53 194 4.0 11.0 0.00 0.00 0.00 94 1016.5
20260507041538 53 204 4.0 11.0 0.00 0.00 0.00 94 1016.7
20260507040035 53 194 4.0 8.0 0.00 0.00 0.00 94 1017.0
20260507034550 53 188 4.0 10.0 0.00 0.00 0.00 94 1017.1
20260507033041 53 196 4.0 10.0 0.00 0.00 0.00 93 1017.5
20260507031537 53 206 4.0 16.0 0.00 0.00 0.00 93 1017.5
20260507030036 53 177 4.0 11.0 0.00 0.00 0.00 93 1017.7
20260507024550 54 201 5.0 11.0 0.00 0.00 0.00 92 1017.8